Location: Mouss�
(47.9236°N, 1.2701°W)
Time: 04:00:27
(UTC+00:00)

Okean 1-7 - Pass Details

Date: 03 March 2021
Orbit: 589 x 619 km, 82.5° (Epoch: 17 April)

Event Time Altitude Azimuth Distance (km) Brightness Sun altitude
Rises 19:34:13 0° 349° (N) 2,899 6.8 -17.7°
Reaches altitude 10° 19:36:27 10° 349° (N) 1,985 5.9 -18.1°
Maximum altitude 19:40:51 82° 263° (W) 623 3.0 -18.8°
Drops below altitude 10° 19:45:10 10° 175° (S) 1,951 5.4 -19.5°
Enters shadow 19:45:47 - 175° (S) 2,195 5.7 -19.6°
